Year,Month,Day,Hour,Minute,Value (Times are PST for temperature in C)
2018,05,28,00,00,15.10
2018,05,28,00,01,15.10
2018,05,28,00,02,15.10
2018,05,28,00,03,15.10
2018,05,28,00,04,15.10
2018,05,28,00,05,15.10
2018,05,28,00,06,15.10
2018,05,28,00,07,15.10
2018,05,28,00,08,15.10
2018,05,28,00,09,15.10
2018,05,28,00,10,15.10
2018,05,28,00,11,15.10
2018,05,28,00,12,15.00
2018,05,28,00,13,15.00
2018,05,28,00,14,15.00
2018,05,28,00,15,15.00
2018,05,28,00,16,15.00
2018,05,28,00,17,15.00
2018,05,28,00,18,15.00
2018,05,28,00,19,15.00
2018,05,28,00,20,15.00
2018,05,28,00,21,14.90
2018,05,28,00,22,14.90
2018,05,28,00,23,14.90
2018,05,28,00,24,14.90
2018,05,28,00,25,14.90
2018,05,28,00,26,14.90
2018,05,28,00,27,14.80
2018,05,28,00,28,14.80
2018,05,28,00,29,14.80
2018,05,28,00,30,14.80
2018,05,28,00,31,14.80
2018,05,28,00,32,14.80
2018,05,28,00,33,14.80
2018,05,28,00,34,14.80
2018,05,28,00,35,14.80
2018,05,28,00,36,14.80
2018,05,28,00,37,14.80
2018,05,28,00,38,14.80
2018,05,28,00,39,14.80
2018,05,28,00,40,14.80
2018,05,28,00,41,14.80
2018,05,28,00,42,14.80
2018,05,28,00,43,14.80
2018,05,28,00,44,14.80
2018,05,28,00,45,14.80
2018,05,28,00,46,14.80
2018,05,28,00,47,14.80
2018,05,28,00,48,14.80
2018,05,28,00,49,14.80
2018,05,28,00,50,14.70
2018,05,28,00,51,14.70
2018,05,28,00,52,14.70
2018,05,28,00,53,14.70
2018,05,28,00,54,14.60
2018,05,28,00,55,14.60
2018,05,28,00,56,14.50
2018,05,28,00,57,14.50
2018,05,28,00,58,14.40
2018,05,28,00,59,14.30
2018,05,28,01,00,14.20
2018,05,28,01,01,14.10
2018,05,28,01,02,14.10
2018,05,28,01,03,14.00
2018,05,28,01,04,13.90
2018,05,28,01,05,13.80
2018,05,28,01,06,13.80
2018,05,28,01,07,13.70
2018,05,28,01,08,13.70
2018,05,28,01,09,13.60
2018,05,28,01,10,13.60
2018,05,28,01,11,13.50
2018,05,28,01,12,13.50
2018,05,28,01,13,13.40
2018,05,28,01,14,13.30
2018,05,28,01,15,13.30
2018,05,28,01,16,13.30
2018,05,28,01,17,13.30
2018,05,28,01,18,13.20
2018,05,28,01,19,13.20
2018,05,28,01,20,13.20
2018,05,28,01,21,13.10
2018,05,28,01,22,13.10
2018,05,28,01,23,13.00
2018,05,28,01,24,12.90
2018,05,28,01,25,12.90
2018,05,28,01,26,12.90
2018,05,28,01,27,12.90
2018,05,28,01,28,12.80
2018,05,28,01,29,12.80
2018,05,28,01,30,12.80
2018,05,28,01,31,12.70
2018,05,28,01,32,12.70
2018,05,28,01,33,12.60
2018,05,28,01,34,12.60
2018,05,28,01,35,12.50
2018,05,28,01,36,12.50
2018,05,28,01,37,12.50
2018,05,28,01,38,12.50
2018,05,28,01,39,12.50
2018,05,28,01,40,12.50
2018,05,28,01,41,12.50
2018,05,28,01,42,12.50
2018,05,28,01,43,12.50
2018,05,28,01,44,12.60
2018,05,28,01,45,12.60
2018,05,28,01,46,12.60
2018,05,28,01,47,12.60
2018,05,28,01,48,12.50
2018,05,28,01,49,12.50
2018,05,28,01,50,12.50
2018,05,28,01,51,12.50
2018,05,28,01,52,12.50
2018,05,28,01,53,12.50
2018,05,28,01,54,12.50
2018,05,28,01,55,12.50
2018,05,28,01,56,12.40
2018,05,28,01,57,12.40
2018,05,28,01,58,12.40
2018,05,28,01,59,12.40
2018,05,28,02,00,12.30
2018,05,28,02,01,12.30
2018,05,28,02,02,12.30
2018,05,28,02,03,12.20
2018,05,28,02,04,12.20
2018,05,28,02,05,12.20
2018,05,28,02,06,12.10
2018,05,28,02,07,12.10
2018,05,28,02,08,12.10
2018,05,28,02,09,12.00
2018,05,28,02,10,11.90
2018,05,28,02,11,11.90
2018,05,28,02,12,11.80
2018,05,28,02,13,11.80
2018,05,28,02,14,11.70
2018,05,28,02,15,11.70
2018,05,28,02,16,11.70
2018,05,28,02,17,11.60
2018,05,28,02,18,11.60
2018,05,28,02,19,11.50
2018,05,28,02,20,11.50
2018,05,28,02,21,11.40
2018,05,28,02,22,11.40
2018,05,28,02,23,11.40
2018,05,28,02,24,11.30
2018,05,28,02,25,11.30
2018,05,28,02,26,11.30
2018,05,28,02,27,11.20
2018,05,28,02,28,11.20
2018,05,28,02,29,11.20
2018,05,28,02,30,11.10
2018,05,28,02,31,11.10
2018,05,28,02,32,11.10
2018,05,28,02,33,11.10
2018,05,28,02,34,11.10
2018,05,28,02,35,11.10
2018,05,28,02,36,11.00
2018,05,28,02,37,11.00
2018,05,28,02,38,11.00
2018,05,28,02,39,11.00
2018,05,28,02,40,10.90
2018,05,28,02,41,10.90
2018,05,28,02,42,10.90
2018,05,28,02,43,10.90
2018,05,28,02,44,10.90
2018,05,28,02,45,10.90
2018,05,28,02,46,10.80
2018,05,28,02,47,10.80
2018,05,28,02,48,10.80
2018,05,28,02,49,10.80
2018,05,28,02,50,10.80
2018,05,28,02,51,10.80
2018,05,28,02,52,10.80
2018,05,28,02,53,10.70
2018,05,28,02,54,10.70
2018,05,28,02,55,10.70
2018,05,28,02,56,10.70
2018,05,28,02,57,10.70
2018,05,28,02,58,10.70
2018,05,28,02,59,10.60
2018,05,28,03,00,10.60
2018,05,28,03,01,10.60
2018,05,28,03,02,10.60
2018,05,28,03,03,10.60
2018,05,28,03,04,10.60
2018,05,28,03,05,10.60
2018,05,28,03,06,10.50
2018,05,28,03,07,10.50
2018,05,28,03,08,10.50
2018,05,28,03,09,10.50
2018,05,28,03,10,10.40
2018,05,28,03,11,10.40
2018,05,28,03,12,10.40
2018,05,28,03,13,10.40
2018,05,28,03,14,10.40
2018,05,28,03,15,10.40
2018,05,28,03,16,10.30
2018,05,28,03,17,10.30
2018,05,28,03,18,10.30
2018,05,28,03,19,10.30
2018,05,28,03,20,10.30
2018,05,28,03,21,10.30
2018,05,28,03,22,10.20
2018,05,28,03,23,10.20
2018,05,28,03,24,10.20
2018,05,28,03,25,10.20
2018,05,28,03,26,10.20
2018,05,28,03,27,10.20
2018,05,28,03,28,10.20
2018,05,28,03,29,10.20
2018,05,28,03,30,10.20
2018,05,28,03,31,10.20
2018,05,28,03,32,10.20
2018,05,28,03,33,10.20
2018,05,28,03,34,10.20
2018,05,28,03,35,10.10
2018,05,28,03,36,10.10
2018,05,28,03,37,10.10
2018,05,28,03,38,10.10
2018,05,28,03,39,10.10
2018,05,28,03,40,10.10
2018,05,28,03,41,10.10
2018,05,28,03,42,10.10
2018,05,28,03,43,10.20
2018,05,28,03,44,10.20
2018,05,28,03,45,10.20
2018,05,28,03,46,10.20
2018,05,28,03,47,10.20
2018,05,28,03,48,10.20
2018,05,28,03,49,10.20
2018,05,28,03,50,10.20
2018,05,28,03,51,10.20
2018,05,28,03,52,10.20
2018,05,28,03,53,10.20
2018,05,28,03,54,10.20
2018,05,28,03,55,10.20
2018,05,28,03,56,10.20
2018,05,28,03,57,10.20
2018,05,28,03,58,10.20
2018,05,28,03,59,10.20
2018,05,28,04,00,10.10
2018,05,28,04,01,10.10
2018,05,28,04,02,10.10
2018,05,28,04,03,10.10
2018,05,28,04,04,10.10
2018,05,28,04,05,10.10
2018,05,28,04,06,10.10
2018,05,28,04,07,10.10
2018,05,28,04,08,10.10
2018,05,28,04,09,10.00
2018,05,28,04,10,10.00
2018,05,28,04,11,10.00
2018,05,28,04,12,10.00
2018,05,28,04,13,10.00
2018,05,28,04,14,10.00
2018,05,28,04,15,10.00
2018,05,28,04,16,10.00
2018,05,28,04,17,10.00
2018,05,28,04,18,10.00
2018,05,28,04,19,10.00
2018,05,28,04,20,9.90
2018,05,28,04,21,9.90
2018,05,28,04,22,9.90
2018,05,28,04,23,9.90
2018,05,28,04,24,9.90
2018,05,28,04,25,9.90
2018,05,28,04,26,9.90
2018,05,28,04,27,9.90
2018,05,28,04,28,9.90
2018,05,28,04,29,9.90
2018,05,28,04,30,9.90
2018,05,28,04,31,9.90
2018,05,28,04,32,9.90
2018,05,28,04,33,9.90
2018,05,28,04,34,9.90
2018,05,28,04,35,9.90
2018,05,28,04,36,9.90
2018,05,28,04,37,9.90
2018,05,28,04,38,9.90
2018,05,28,04,39,9.90
2018,05,28,04,40,9.90
2018,05,28,04,41,9.80
2018,05,28,04,42,9.80
2018,05,28,04,43,9.80
2018,05,28,04,44,9.80
2018,05,28,04,45,9.80
2018,05,28,04,46,9.80
2018,05,28,04,47,9.80
2018,05,28,04,48,9.80
2018,05,28,04,49,9.80
2018,05,28,04,50,9.80
2018,05,28,04,51,9.80
2018,05,28,04,52,9.80
2018,05,28,04,53,9.80
2018,05,28,04,54,9.70
2018,05,28,04,55,9.70
2018,05,28,04,56,9.70
2018,05,28,04,57,9.70
2018,05,28,04,58,9.70
2018,05,28,04,59,9.70
2018,05,28,05,00,9.70
2018,05,28,05,01,9.70
2018,05,28,05,02,9.70
2018,05,28,05,03,9.70
2018,05,28,05,04,9.70
2018,05,28,05,05,9.70
2018,05,28,05,06,9.70
2018,05,28,05,07,9.70
2018,05,28,05,08,9.70
2018,05,28,05,09,9.70
2018,05,28,05,10,9.70
2018,05,28,05,11,9.70
2018,05,28,05,12,9.70
2018,05,28,05,13,9.70
2018,05,28,05,14,9.70
2018,05,28,05,15,9.70
2018,05,28,05,16,9.70
2018,05,28,05,17,9.70
2018,05,28,05,18,9.70
2018,05,28,05,19,9.70
2018,05,28,05,20,9.70
2018,05,28,05,21,9.70
2018,05,28,05,22,9.70
2018,05,28,05,23,9.60
2018,05,28,05,24,9.60
2018,05,28,05,25,9.60
2018,05,28,05,26,9.60
2018,05,28,05,27,9.60
2018,05,28,05,28,9.60
2018,05,28,05,29,9.60
2018,05,28,05,30,9.50
2018,05,28,05,31,9.50
2018,05,28,05,32,9.50
2018,05,28,05,33,9.50
2018,05,28,05,34,9.50
2018,05,28,05,35,9.50
2018,05,28,05,36,9.50
2018,05,28,05,37,9.50
2018,05,28,05,38,9.50
2018,05,28,05,39,9.50
2018,05,28,05,40,9.50
2018,05,28,05,41,9.50
2018,05,28,05,42,9.50
2018,05,28,05,43,9.50
2018,05,28,05,44,9.50
2018,05,28,05,45,9.50
2018,05,28,05,46,9.50
2018,05,28,05,47,9.60
2018,05,28,05,48,9.60
2018,05,28,05,49,9.60
2018,05,28,05,50,9.60
2018,05,28,05,51,9.60
2018,05,28,05,52,9.60
2018,05,28,05,53,9.60
2018,05,28,05,54,9.60
2018,05,28,05,55,9.60
2018,05,28,05,56,9.60
2018,05,28,05,57,9.60
2018,05,28,05,58,9.60
2018,05,28,05,59,9.60
2018,05,28,06,00,9.50
2018,05,28,06,01,9.50
2018,05,28,06,02,9.50
2018,05,28,06,03,9.50
2018,05,28,06,04,9.60
2018,05,28,06,05,9.60
2018,05,28,06,06,9.60
2018,05,28,06,07,9.60
2018,05,28,06,08,9.60
2018,05,28,06,09,9.60
2018,05,28,06,10,9.70
2018,05,28,06,11,9.70
2018,05,28,06,12,9.70
2018,05,28,06,13,9.70
2018,05,28,06,14,9.70
2018,05,28,06,15,9.70
2018,05,28,06,16,9.70
2018,05,28,06,17,9.70
2018,05,28,06,18,9.70
2018,05,28,06,19,9.70
2018,05,28,06,20,9.70
2018,05,28,06,21,9.70
2018,05,28,06,22,9.70
2018,05,28,06,23,9.80
2018,05,28,06,24,9.80
2018,05,28,06,25,9.80
2018,05,28,06,26,9.90
2018,05,28,06,27,9.90
2018,05,28,06,28,9.90
2018,05,28,06,29,10.00
2018,05,28,06,30,10.00
2018,05,28,06,31,10.10
2018,05,28,06,32,10.10
2018,05,28,06,33,10.10
2018,05,28,06,34,10.10
2018,05,28,06,35,10.20
2018,05,28,06,36,10.20
2018,05,28,06,37,10.20
2018,05,28,06,38,10.30
2018,05,28,06,39,10.30
2018,05,28,06,40,10.30
2018,05,28,06,41,10.30
2018,05,28,06,42,10.30
2018,05,28,06,43,10.30
2018,05,28,06,44,10.40
2018,05,28,06,45,10.40
2018,05,28,06,46,10.40
2018,05,28,06,47,10.40
2018,05,28,06,48,10.40
2018,05,28,06,49,10.50
2018,05,28,06,50,10.60
2018,05,28,06,51,10.60
2018,05,28,06,52,10.70
2018,05,28,06,53,10.70
2018,05,28,06,54,10.80
2018,05,28,06,55,10.80
2018,05,28,06,56,10.80
2018,05,28,06,57,10.90
2018,05,28,06,58,10.90
2018,05,28,06,59,10.90
2018,05,28,07,00,10.90
2018,05,28,07,01,11.00
2018,05,28,07,02,11.00
2018,05,28,07,03,11.00
2018,05,28,07,04,11.00
2018,05,28,07,05,11.10
2018,05,28,07,06,11.20
2018,05,28,07,07,11.20
2018,05,28,07,08,11.20
2018,05,28,07,09,11.30
2018,05,28,07,10,11.30
2018,05,28,07,11,11.30
2018,05,28,07,12,11.30
2018,05,28,07,13,11.40
2018,05,28,07,14,11.40
2018,05,28,07,15,11.40
2018,05,28,07,16,11.50
2018,05,28,07,17,11.50
2018,05,28,07,18,11.60
2018,05,28,07,19,11.60
2018,05,28,07,20,11.60
2018,05,28,07,21,11.70
2018,05,28,07,22,11.70
2018,05,28,07,23,11.80
2018,05,28,07,24,11.80
2018,05,28,07,25,11.80
2018,05,28,07,26,11.90
2018,05,28,07,27,11.90
2018,05,28,07,28,12.00
2018,05,28,07,29,12.00
2018,05,28,07,30,12.10
2018,05,28,07,31,12.20
2018,05,28,07,32,12.20
2018,05,28,07,33,12.20
2018,05,28,07,34,12.30
2018,05,28,07,35,12.30
2018,05,28,07,36,12.40
2018,05,28,07,37,12.40
2018,05,28,07,38,12.50
2018,05,28,07,39,12.50
2018,05,28,07,40,12.60
2018,05,28,07,41,12.60
2018,05,28,07,42,12.70
2018,05,28,07,43,12.70
2018,05,28,07,44,12.80
2018,05,28,07,45,12.80
2018,05,28,07,46,12.90
2018,05,28,07,47,13.00
2018,05,28,07,48,13.10
2018,05,28,07,49,13.10
2018,05,28,07,50,13.20
2018,05,28,07,51,13.30
2018,05,28,07,52,13.40
2018,05,28,07,53,13.40
2018,05,28,07,54,13.50
2018,05,28,07,55,13.50
2018,05,28,07,56,13.60
2018,05,28,07,57,13.60
2018,05,28,07,58,13.70
2018,05,28,07,59,13.70
2018,05,28,08,00,13.70
2018,05,28,08,01,13.80
2018,05,28,08,02,13.80
2018,05,28,08,03,13.80
2018,05,28,08,04,13.90
2018,05,28,08,05,13.90
2018,05,28,08,06,14.00
2018,05,28,08,07,14.00
2018,05,28,08,08,14.10
2018,05,28,08,09,14.10
2018,05,28,08,10,14.20
2018,05,28,08,11,14.20
2018,05,28,08,12,14.20
2018,05,28,08,13,14.30
2018,05,28,08,14,14.40
2018,05,28,08,15,14.40
2018,05,28,08,16,14.50
2018,05,28,08,17,14.60
2018,05,28,08,18,14.60
2018,05,28,08,19,14.60
2018,05,28,08,20,14.70
2018,05,28,08,21,14.70
2018,05,28,08,22,14.70
2018,05,28,08,23,14.80
2018,05,28,08,24,14.80
2018,05,28,08,25,14.80
2018,05,28,08,26,14.80
2018,05,28,08,27,14.80
2018,05,28,08,28,14.90
2018,05,28,08,29,14.90
2018,05,28,08,30,14.90
2018,05,28,08,31,14.90
2018,05,28,08,32,15.00
2018,05,28,08,33,15.00
2018,05,28,08,34,15.00
2018,05,28,08,35,15.00
2018,05,28,08,36,15.10
2018,05,28,08,37,15.10
2018,05,28,08,38,15.10
2018,05,28,08,39,15.10
2018,05,28,08,40,15.10
2018,05,28,08,41,15.10
2018,05,28,08,42,15.10
2018,05,28,08,43,15.10
2018,05,28,08,44,15.10
2018,05,28,08,45,15.10
2018,05,28,08,46,15.10
2018,05,28,08,47,15.10
2018,05,28,08,48,15.10
2018,05,28,08,49,15.10
2018,05,28,08,50,15.10
2018,05,28,08,51,15.20
2018,05,28,08,52,15.20
2018,05,28,08,53,15.20
2018,05,28,08,54,15.30
2018,05,28,08,55,15.30
2018,05,28,08,56,15.30
2018,05,28,08,57,15.30
2018,05,28,08,58,15.40
2018,05,28,08,59,15.40
2018,05,28,09,00,15.40
2018,05,28,09,01,15.40
2018,05,28,09,02,15.50
2018,05,28,09,03,15.50
2018,05,28,09,04,15.60
2018,05,28,09,05,15.60
2018,05,28,09,06,15.70
2018,05,28,09,07,15.80
2018,05,28,09,08,15.90
2018,05,28,09,09,16.00
2018,05,28,09,10,16.10
2018,05,28,09,11,16.20
2018,05,28,09,12,16.30
2018,05,28,09,13,16.40
2018,05,28,09,14,16.50
2018,05,28,09,15,16.60
2018,05,28,09,16,16.70
2018,05,28,09,17,16.80
2018,05,28,09,18,16.80
2018,05,28,09,19,16.90
2018,05,28,09,20,17.00
2018,05,28,09,21,17.10
2018,05,28,09,22,17.10
2018,05,28,09,23,17.20
2018,05,28,09,24,17.20
2018,05,28,09,25,17.30
2018,05,28,09,26,17.40
2018,05,28,09,27,17.40
2018,05,28,09,28,17.40
2018,05,28,09,29,17.50
2018,05,28,09,30,17.60
2018,05,28,09,31,17.60
2018,05,28,09,32,17.70
2018,05,28,09,33,17.70
2018,05,28,09,34,17.80
2018,05,28,09,35,17.80
2018,05,28,09,36,17.80
2018,05,28,09,37,17.90
2018,05,28,09,38,17.90
2018,05,28,09,39,17.90
2018,05,28,09,40,18.00
2018,05,28,09,41,18.00
2018,05,28,09,42,18.10
2018,05,28,09,43,18.10
2018,05,28,09,44,18.10
2018,05,28,09,45,18.20
2018,05,28,09,46,18.20
2018,05,28,09,47,18.20
2018,05,28,09,48,18.30
2018,05,28,09,49,18.30
2018,05,28,09,50,18.30
2018,05,28,09,51,18.40
2018,05,28,09,52,18.40
2018,05,28,09,53,18.40
2018,05,28,09,54,18.50
2018,05,28,09,55,18.50
2018,05,28,09,56,18.50
2018,05,28,09,57,18.50
2018,05,28,09,58,18.50
2018,05,28,09,59,18.60
2018,05,28,10,00,18.60
2018,05,28,10,01,18.60
2018,05,28,10,02,18.60
2018,05,28,10,03,18.60
2018,05,28,10,04,18.60
2018,05,28,10,05,18.60
2018,05,28,10,06,18.60
2018,05,28,10,07,18.60
2018,05,28,10,08,18.60
2018,05,28,10,09,18.60
2018,05,28,10,10,18.60
2018,05,28,10,11,18.50
2018,05,28,10,12,18.50
2018,05,28,10,13,18.40
2018,05,28,10,14,18.40
2018,05,28,10,15,18.40
2018,05,28,10,16,18.30
2018,05,28,10,17,18.30
2018,05,28,10,18,18.20
2018,05,28,10,19,18.20
2018,05,28,10,20,18.10
2018,05,28,10,21,18.10
2018,05,28,10,22,18.10
2018,05,28,10,23,18.00
2018,05,28,10,24,18.00
2018,05,28,10,25,17.90
2018,05,28,10,26,17.90
2018,05,28,10,27,17.90
2018,05,28,10,28,18.00
2018,05,28,10,29,18.00
2018,05,28,10,30,18.00
2018,05,28,10,31,18.00
2018,05,28,10,32,18.00
2018,05,28,10,33,17.90
2018,05,28,10,34,17.90
2018,05,28,10,35,17.90
2018,05,28,10,36,17.90
2018,05,28,10,37,17.90
2018,05,28,10,38,17.90
2018,05,28,10,39,17.90
2018,05,28,10,40,17.90
2018,05,28,10,41,17.90
2018,05,28,10,42,17.90
2018,05,28,10,43,17.90
2018,05,28,10,44,17.80
2018,05,28,10,45,17.80
2018,05,28,10,46,17.80
2018,05,28,10,47,17.80
2018,05,28,10,48,17.80
2018,05,28,10,49,17.80
2018,05,28,10,50,17.70
2018,05,28,10,51,17.80
2018,05,28,10,52,17.80
2018,05,28,10,53,17.80
2018,05,28,10,54,17.90
2018,05,28,10,55,17.90
2018,05,28,10,56,18.00
2018,05,28,10,57,18.10
2018,05,28,10,58,18.10
2018,05,28,10,59,18.20
2018,05,28,11,00,18.10
2018,05,28,11,01,17.90
2018,05,28,11,02,17.70
2018,05,28,11,03,17.50
2018,05,28,11,04,17.30
2018,05,28,11,05,17.10
2018,05,28,11,06,16.90
2018,05,28,11,07,16.70
2018,05,28,11,08,16.50
2018,05,28,11,09,16.40
2018,05,28,11,10,16.40
2018,05,28,11,11,16.30
2018,05,28,11,12,16.20
2018,05,28,11,13,16.10
2018,05,28,11,14,16.10
2018,05,28,11,15,16.00
2018,05,28,11,16,16.00
2018,05,28,11,17,16.00
2018,05,28,11,18,16.10
2018,05,28,11,19,16.10
2018,05,28,11,20,16.10
2018,05,28,11,21,16.10
2018,05,28,11,22,16.10
2018,05,28,11,23,16.10
2018,05,28,11,24,16.10
2018,05,28,11,25,16.10
2018,05,28,11,26,16.20
2018,05,28,11,27,16.20
2018,05,28,11,28,16.30
2018,05,28,11,29,16.30
2018,05,28,11,30,16.30
2018,05,28,11,31,16.30
2018,05,28,11,32,16.30
2018,05,28,11,33,16.30
2018,05,28,11,34,16.30
2018,05,28,11,35,16.30
2018,05,28,11,36,16.20
2018,05,28,11,37,16.20
2018,05,28,11,38,16.20
2018,05,28,11,39,16.20
2018,05,28,11,40,16.20
2018,05,28,11,41,16.20
2018,05,28,11,42,16.10
2018,05,28,11,43,16.00
2018,05,28,11,44,16.00
2018,05,28,11,45,15.90
2018,05,28,11,46,15.80
2018,05,28,11,47,15.80
2018,05,28,11,48,15.80
2018,05,28,11,49,15.70
2018,05,28,11,50,15.70
2018,05,28,11,51,15.70
2018,05,28,11,52,15.60
2018,05,28,11,53,15.60
2018,05,28,11,54,15.60
2018,05,28,11,55,15.60
2018,05,28,11,56,15.60
2018,05,28,11,57,15.60
2018,05,28,11,58,15.60
2018,05,28,11,59,15.60
2018,05,28,12,00,15.60
2018,05,28,12,01,15.60
2018,05,28,12,02,15.50
2018,05,28,12,03,15.40
2018,05,28,12,04,15.30
2018,05,28,12,05,15.20
2018,05,28,12,06,15.20
2018,05,28,12,07,15.10
2018,05,28,12,08,15.00
2018,05,28,12,09,14.90
2018,05,28,12,10,14.90
2018,05,28,12,11,15.00
2018,05,28,12,12,15.10
2018,05,28,12,13,15.20
2018,05,28,12,14,15.20
2018,05,28,12,15,15.30
2018,05,28,12,16,15.30
2018,05,28,12,17,15.30
2018,05,28,12,18,15.30
2018,05,28,12,19,15.30
2018,05,28,12,20,15.30
2018,05,28,12,21,15.30
2018,05,28,12,22,15.30
2018,05,28,12,23,15.30
2018,05,28,12,24,15.30
2018,05,28,12,25,15.30
2018,05,28,12,26,15.30
2018,05,28,12,27,15.40
2018,05,28,12,28,15.40
2018,05,28,12,29,15.50
2018,05,28,12,30,15.60
2018,05,28,12,31,15.60
2018,05,28,12,32,15.60
2018,05,28,12,33,15.70
2018,05,28,12,34,15.70
2018,05,28,12,35,15.70
2018,05,28,12,36,15.70
2018,05,28,12,37,15.70
2018,05,28,12,38,15.70
2018,05,28,12,39,15.70
2018,05,28,12,40,15.70
2018,05,28,12,41,15.70
2018,05,28,12,42,15.80
2018,05,28,12,43,15.80
2018,05,28,12,44,15.80
2018,05,28,12,45,15.80
2018,05,28,12,46,15.80
2018,05,28,12,47,15.80
2018,05,28,12,48,15.80
2018,05,28,12,49,15.80
2018,05,28,12,50,15.80
2018,05,28,12,51,15.80
2018,05,28,12,52,15.80
2018,05,28,12,53,15.80
2018,05,28,12,54,15.80
2018,05,28,12,55,15.90
2018,05,28,12,56,15.90
2018,05,28,12,57,15.90
2018,05,28,12,58,15.90
2018,05,28,12,59,15.90
2018,05,28,13,00,15.80
2018,05,28,13,01,15.80
2018,05,28,13,02,15.80
2018,05,28,13,03,15.80
2018,05,28,13,04,15.80
2018,05,28,13,05,15.80
2018,05,28,13,06,15.80
2018,05,28,13,07,15.80
2018,05,28,13,08,15.80
2018,05,28,13,09,15.80
2018,05,28,13,10,15.70
2018,05,28,13,11,15.70
2018,05,28,13,12,15.80
2018,05,28,13,13,15.80
2018,05,28,13,14,15.80
2018,05,28,13,15,15.80
2018,05,28,13,16,15.80
2018,05,28,13,17,15.80
2018,05,28,13,18,15.80
2018,05,28,13,19,15.80
2018,05,28,13,20,15.80
2018,05,28,13,21,15.80
2018,05,28,13,22,15.90
2018,05,28,13,23,15.90
2018,05,28,13,24,15.90
2018,05,28,13,25,15.90
2018,05,28,13,26,15.90
2018,05,28,13,27,16.00
2018,05,28,13,28,16.00
2018,05,28,13,29,16.00
2018,05,28,13,30,16.00
2018,05,28,13,31,16.00
2018,05,28,13,32,16.00
2018,05,28,13,33,16.00
2018,05,28,13,34,16.00
2018,05,28,13,35,16.00
2018,05,28,13,36,16.10
2018,05,28,13,37,16.10
2018,05,28,13,38,16.20
2018,05,28,13,39,16.20
2018,05,28,13,40,16.20
2018,05,28,13,41,16.30
2018,05,28,13,42,16.30
2018,05,28,13,43,16.30
2018,05,28,13,44,16.30
2018,05,28,13,45,16.20
2018,05,28,13,46,16.20
2018,05,28,13,47,16.10
2018,05,28,13,48,16.00
2018,05,28,13,49,15.90
2018,05,28,13,50,15.80
2018,05,28,13,51,15.80
2018,05,28,13,52,15.80
2018,05,28,13,53,15.80
2018,05,28,13,54,15.80
2018,05,28,13,55,15.80
2018,05,28,13,56,15.80
2018,05,28,13,57,15.70
2018,05,28,13,58,15.70
2018,05,28,13,59,15.70
2018,05,28,14,00,15.70
2018,05,28,14,01,15.80
2018,05,28,14,02,15.90
2018,05,28,14,03,15.90
2018,05,28,14,04,16.00
2018,05,28,14,05,16.00
2018,05,28,14,06,16.10
2018,05,28,14,07,16.10
2018,05,28,14,08,16.10
2018,05,28,14,09,16.10
2018,05,28,14,10,16.10
2018,05,28,14,11,16.10
2018,05,28,14,12,16.10
2018,05,28,14,13,16.10
2018,05,28,14,14,16.10
2018,05,28,14,15,16.10
2018,05,28,14,16,16.10
2018,05,28,14,17,16.10
2018,05,28,14,18,16.10
2018,05,28,14,19,16.10
2018,05,28,14,20,16.10
2018,05,28,14,21,16.10
2018,05,28,14,22,16.10
2018,05,28,14,23,16.10
2018,05,28,14,24,16.10
2018,05,28,14,25,16.00
2018,05,28,14,26,16.00
2018,05,28,14,27,16.00
2018,05,28,14,28,16.00
2018,05,28,14,29,16.00
2018,05,28,14,30,16.00
2018,05,28,14,31,16.10
2018,05,28,14,32,16.10
2018,05,28,14,33,16.10
2018,05,28,14,34,16.10
2018,05,28,14,35,16.10
2018,05,28,14,36,16.10
2018,05,28,14,37,16.10
2018,05,28,14,38,16.10
2018,05,28,14,39,16.10
2018,05,28,14,40,16.00
2018,05,28,14,41,16.00
2018,05,28,14,42,16.00
2018,05,28,14,43,16.00
2018,05,28,14,44,16.00
2018,05,28,14,45,16.00
2018,05,28,14,46,16.00
2018,05,28,14,47,16.00
2018,05,28,14,48,16.00
2018,05,28,14,49,16.00
2018,05,28,14,50,16.00
2018,05,28,14,51,16.00
2018,05,28,14,52,15.90
2018,05,28,14,53,15.90
2018,05,28,14,54,15.90
2018,05,28,14,55,15.90
2018,05,28,14,56,15.90
2018,05,28,14,57,15.90
2018,05,28,14,58,15.90
2018,05,28,14,59,15.90
2018,05,28,15,00,15.90
2018,05,28,15,01,15.90
2018,05,28,15,02,15.90
2018,05,28,15,03,15.90
2018,05,28,15,04,15.90
2018,05,28,15,05,15.90
2018,05,28,15,06,15.90
2018,05,28,15,07,15.90
2018,05,28,15,08,15.80
2018,05,28,15,09,15.80
2018,05,28,15,10,15.80
2018,05,28,15,11,15.80
2018,05,28,15,12,15.90
2018,05,28,15,13,15.90
2018,05,28,15,14,15.90
2018,05,28,15,15,15.90
2018,05,28,15,16,15.90
2018,05,28,15,17,15.90
2018,05,28,15,18,16.00
2018,05,28,15,19,16.00
2018,05,28,15,20,16.00
2018,05,28,15,21,16.10
2018,05,28,15,22,16.10
2018,05,28,15,23,16.10
2018,05,28,15,24,16.10
2018,05,28,15,25,16.20
2018,05,28,15,26,16.20
2018,05,28,15,27,16.20
2018,05,28,15,28,16.30
2018,05,28,15,29,16.30
2018,05,28,15,30,16.30
2018,05,28,15,31,16.30
2018,05,28,15,32,16.30
2018,05,28,15,33,16.30
2018,05,28,15,34,16.30
2018,05,28,15,35,16.20
2018,05,28,15,36,16.20
2018,05,28,15,37,16.20
2018,05,28,15,38,16.20
2018,05,28,15,39,16.20
2018,05,28,15,40,16.20
2018,05,28,15,41,16.20
2018,05,28,15,42,16.20
2018,05,28,15,43,16.20
2018,05,28,15,44,16.20
2018,05,28,15,45,16.20
2018,05,28,15,46,16.20
2018,05,28,15,47,16.20
2018,05,28,15,48,16.20
2018,05,28,15,49,16.30
2018,05,28,15,50,16.30
2018,05,28,15,51,16.30
2018,05,28,15,52,16.30
2018,05,28,15,53,16.40
2018,05,28,15,54,16.40
2018,05,28,15,55,16.50
2018,05,28,15,56,16.60
2018,05,28,15,57,16.60
2018,05,28,15,58,16.60
2018,05,28,15,59,16.70
2018,05,28,16,00,16.80
2018,05,28,16,01,16.90
2018,05,28,16,02,17.00
2018,05,28,16,03,17.10
2018,05,28,16,04,17.10
2018,05,28,16,05,17.20
2018,05,28,16,06,17.20
2018,05,28,16,07,17.20
2018,05,28,16,08,17.30
2018,05,28,16,09,17.30
2018,05,28,16,10,17.40
2018,05,28,16,11,17.50
2018,05,28,16,12,17.50
2018,05,28,16,13,17.50
2018,05,28,16,14,17.50
2018,05,28,16,15,17.50
2018,05,28,16,16,17.50
2018,05,28,16,17,17.40
2018,05,28,16,18,17.40
2018,05,28,16,19,17.40
2018,05,28,16,20,17.30
2018,05,28,16,21,17.30
2018,05,28,16,22,17.30
2018,05,28,16,23,17.30
2018,05,28,16,24,17.30
2018,05,28,16,25,17.40
2018,05,28,16,26,17.40
2018,05,28,16,27,17.40
2018,05,28,16,28,17.40
2018,05,28,16,29,17.40
2018,05,28,16,30,17.40
2018,05,28,16,31,17.40
2018,05,28,16,32,17.30
2018,05,28,16,33,17.30
2018,05,28,16,34,17.30
2018,05,28,16,35,17.30
2018,05,28,16,36,17.30
2018,05,28,16,37,17.20
2018,05,28,16,38,17.10
2018,05,28,16,39,17.00
2018,05,28,16,40,16.80
2018,05,28,16,41,16.70
2018,05,28,16,42,16.60
2018,05,28,16,43,16.60
2018,05,28,16,44,16.50
2018,05,28,16,45,16.50
2018,05,28,16,46,16.40
2018,05,28,16,47,16.40
2018,05,28,16,48,16.40
2018,05,28,16,49,16.50
2018,05,28,16,50,16.50
2018,05,28,16,51,16.50
2018,05,28,16,52,16.50
2018,05,28,16,53,16.50
2018,05,28,16,54,16.50
2018,05,28,16,55,16.50
2018,05,28,16,56,16.50
2018,05,28,16,57,16.50
2018,05,28,16,58,16.50
2018,05,28,16,59,16.60
2018,05,28,17,00,16.60
2018,05,28,17,01,16.60
2018,05,28,17,02,16.70
2018,05,28,17,03,16.70
2018,05,28,17,04,16.60
2018,05,28,17,05,16.60
2018,05,28,17,06,16.60
2018,05,28,17,07,16.60
2018,05,28,17,08,16.60
2018,05,28,17,09,16.50
2018,05,28,17,10,16.50
2018,05,28,17,11,16.50
2018,05,28,17,12,16.40
2018,05,28,17,13,16.40
2018,05,28,17,14,16.30
2018,05,28,17,15,16.30
2018,05,28,17,16,16.30
2018,05,28,17,17,16.30
2018,05,28,17,18,16.30
2018,05,28,17,19,16.30
2018,05,28,17,20,16.20
2018,05,28,17,21,16.20
2018,05,28,17,22,16.20
2018,05,28,17,23,16.10
2018,05,28,17,24,16.00
2018,05,28,17,25,15.90